| time (UTC) | temp C | wind direction | speed KPH | gust KPH | rain 1hr cm | rain 24hr cm | rain mn cm | humidity % | barometer mb |
| 20260506044514 | 2 | 217 | 0.0 | 3.2 | 0.00 | 0.00 | 0.00 | 100 | 1016.5 |
| 20260506043013 | 2 | 360 | 0.0 | 1.6 | 0.00 | 0.00 | 0.00 | 100 | 1016.5 |
| 20260506041512 | 2 | 349 | 0.0 | 0.0 | 0.00 | 0.00 | 0.00 | 100 | 1016.6 |
| 20260506040010 | 2 | 360 | 0.0 | 0.0 | 0.00 | 0.00 | 0.00 | 100 | 1016.6 |
| 20260506034507 | 3 | 326 | 0.0 | 4.8 | 0.00 | 0.00 | 0.00 | 100 | 1016.5 |
| 20260506033005 | 3 | 360 | 0.0 | 4.8 | 0.00 | 0.00 | 0.00 | 100 | 1016.5 |
| 20260506031503 | 3 | 328 | 0.0 | 8.0 | 0.00 | 0.00 | 0.00 | 100 | 1016.6 |
| 20260506030100 | 3 | 360 | 0.0 | 6.4 | 0.00 | 0.00 | 0.00 | 100 | 1016.7 |
| 20260506024559 | 4 | 329 | 0.0 | 3.2 | 0.00 | 0.00 | 0.00 | 100 | 1016.7 |
| 20260506023102 | 4 | 360 | 0.0 | 1.6 | 0.00 | 0.00 | 0.00 | 100 | 1016.7 |
| 20260506021556 | 4 | 229 | 0.0 | 0.0 | 0.00 | 0.00 | 0.00 | 100 | 1016.6 |
| 20260506020057 | 4 | 360 | 0.0 | 3.2 | 0.00 | 0.00 | 0.00 | 100 | 1016.6 |
| 20260506014553 | 4 | 360 | 0.0 | 1.6 | 0.00 | 0.00 | 0.00 | 100 | 1016.7 |
| 20260506013107 | 5 | 360 | 0.0 | 3.2 | 0.00 | 0.00 | 0.00 | 100 | 1016.7 |
| 20260506011556 | 5 | 360 | 0.0 | 8.0 | 0.00 | 0.00 | 0.00 | 100 | 1016.8 |
| 20260506010101 | 5 | 310 | 1.6 | 6.4 | 0.00 | 0.00 | 0.00 | 100 | 1016.8 |
| 20260506004545 | 5 | 360 | 0.0 | 6.4 | 0.00 | 0.00 | 0.00 | 100 | 1016.8 |
| 20260506003044 | 5 | 360 | 0.0 | 6.4 | 0.00 | 0.00 | 0.00 | 100 | 1016.9 |
| 20260506001546 | 5 | 360 | 0.0 | 6.4 | 0.00 | 0.00 | 0.00 | 100 | 1017.0 |
| 20260506000040 | 5 | 360 | 0.0 | 8.0 | 0.00 | 0.00 | 0.00 | 100 | 1016.8 |
| 20260505234537 | 5 | 360 | 0.0 | 6.4 | 0.00 | 0.00 | 0.00 | 100 | 1017.0 |
| 20260505233044 | 5 | 360 | 0.0 | 4.8 | 0.00 | 0.00 | 0.00 | 100 | 1016.9 |
| 20260505231534 | 5 | 273 | 0.0 | 6.4 | 0.00 | 0.00 | 0.00 | 100 | 1016.9 |
| 20260505230039 | 5 | 360 | 0.0 | 6.4 | 0.00 | 0.00 | 0.00 | 100 | 1017.0 |
| 20260505224534 | 5 | 360 | 0.0 | 6.4 | 0.00 | 0.00 | 0.00 | 100 | 1017.1 |
| 20260505223030 | 5 | 360 | 0.0 | 4.8 | 0.00 | 0.00 | 0.00 | 100 | 1017.0 |
| 20260505221530 | 5 | 267 | 0.0 | 8.0 | 0.00 | 0.00 | 0.00 | 100 | 1017.0 |
| 20260505220029 | 5 | 360 | 0.0 | 9.7 | 0.00 | 0.00 | 0.00 | 100 | 1017.0 |
| 20260505214527 | 5 | 360 | 1.6 | 9.7 | 0.00 | 0.00 | 0.00 | 100 | 1016.9 |
| 20260505213029 | 5 | 360 | 1.6 | 8.0 | 0.00 | 0.00 | 0.00 | 100 | 1017.0 |
| 20260505211526 | 5 | 63 | 3.2 | 9.7 | 0.00 | 0.00 | 0.00 | 100 | 1016.9 |
| 20260505210026 | 6 | 360 | 3.2 | 8.0 | 0.00 | 0.00 | 0.00 | 100 | 1016.9 |
| 20260505204524 | 6 | 252 | 1.6 | 6.4 | 0.00 | 0.00 | 0.00 | 100 | 1016.8 |
| 20260505203030 | 6 | 284 | 3.2 | 11.3 | 0.00 | 0.00 | 0.00 | 100 | 1016.9 |
| 20260505201521 | 6 | 360 | 1.6 | 14.5 | 0.00 | 0.00 | 0.00 | 100 | 1016.7 |
| 20260505200021 | 6 | 3 | 3.2 | 9.7 | 0.00 | 0.00 | 0.00 | 100 | 1016.6 |
| 20260505194519 | 6 | 360 | 3.2 | 9.7 | 0.00 | 0.00 | 0.00 | 100 | 1016.5 |
| 20260505193019 | 6 | 333 | 0.0 | 11.3 | 0.00 | 0.00 | 0.00 | 100 | 1016.3 |
| 20260505191518 | 7 | 360 | 0.0 | 8.0 | 0.00 | 0.00 | 0.00 | 100 | 1016.2 |
| 20260505190026 | 7 | 295 | 1.6 | 8.0 | 0.00 | 0.00 | 0.00 | 100 | 1016.0 |
| 20260505184517 | 7 | 360 | 1.6 | 4.8 | 0.00 | 0.00 | 0.00 | 100 | 1016.0 |
| 20260505183016 | 7 | 360 | 0.0 | 4.8 | 0.00 | 0.00 | 0.00 | 100 | 1015.9 |
| 20260505181516 | 8 | 300 | 0.0 | 6.4 | 0.00 | 0.00 | 0.00 | 100 | 1015.8 |
| 20260505180016 | 8 | 252 | 1.6 | 9.7 | 0.00 | 0.00 | 0.00 | 100 | 1015.9 |
| 20260505174515 | 8 | 360 | 0.0 | 6.4 | 0.00 | 0.00 | 0.00 | 100 | 1015.7 |
| 20260505173016 | 8 | 299 | 1.6 | 14.5 | 0.00 | 0.00 | 0.00 | 100 | 1015.8 |
| 20260505171514 | 8 | 17 | 0.0 | 8.0 | 0.00 | 0.00 | 0.00 | 100 | 1015.7 |
| 20260505170018 | 9 | 360 | 1.6 | 8.0 | 0.00 | 0.00 | 0.00 | 100 | 1015.9 |
| 20260505164514 | 9 | 239 | 0.0 | 6.4 | 0.00 | 0.00 | 0.00 | 100 | 1015.9 |
| 20260505163012 | 10 | 360 | 0.0 | 4.8 | 0.00 | 0.00 | 0.00 | 100 | 1015.8 |
| 20260505161511 | 10 | 360 | 0.0 | 8.0 | 0.00 | 0.00 | 0.00 | 100 | 1015.6 |
| 20260505153009 | 11 | 129 | 0.0 | 4.8 | 0.00 | 0.00 | 0.00 | 100 | 1015.6 |
| 20260505151508 | 11 | 360 | 0.0 | 17.7 | 0.00 | 0.00 | 0.00 | 100 | 1015.6 |
| 20260505124552 | 11 | 73 | 0.0 | 4.8 | 0.00 | 0.00 | 0.00 | 100 | 1015.5 |
| 20260505123051 | 10 | 360 | 0.0 | 6.4 | 0.00 | 0.00 | 0.00 | 100 | 1015.7 |
| 20260505121550 | 10 | 328 | 0.0 | 4.8 | 0.00 | 0.00 | 0.00 | 100 | 1015.7 |
| 20260505120108 | 10 | 360 | 1.6 | 6.4 | 0.00 | 0.00 | 0.00 | 100 | 1015.8 |
| 20260505114548 | 10 | 360 | 0.0 | 4.8 | 0.00 | 0.00 | 0.00 | 100 | 1015.8 |
| 20260505113048 | 10 | 1 | 0.0 | 6.4 | 0.00 | 0.00 | 0.00 | 100 | 1015.8 |
| 20260505111547 | 10 | 335 | 0.0 | 4.8 | 0.00 | 0.00 | 0.00 | 100 | 1015.8 |
| 20260505101543 | 10 | 360 | 0.0 | 6.4 | 0.00 | 0.00 | 0.00 | 100 | 1015.8 |
| 20260505100043 | 10 | 325 | 0.0 | 4.8 | 0.00 | 0.00 | 0.00 | 100 | 1015.9 |
| 20260505094542 | 10 | 356 | 1.6 | 4.8 | 0.00 | 0.00 | 0.00 | 100 | 1015.9 |
| 20260505093043 | 10 | 70 | 0.0 | 8.0 | 0.00 | 0.00 | 0.00 | 100 | 1016.0 |
| 20260505091540 | 10 | 13 | 0.0 | 4.8 | 0.00 | 0.00 | 0.00 | 100 | 1015.9 |
| 20260505090044 | 9 | 311 | 0.0 | 6.4 | 0.00 | 0.00 | 0.00 | 100 | 1016.0 |
| 20260505084535 | 9 | 111 | 1.6 | 6.4 | 0.00 | 0.00 | 0.00 | 100 | 1016.0 |
| 20260505083032 | 8 | 6 | 1.6 | 6.4 | 0.00 | 0.00 | 0.00 | 100 | 1016.1 |
| 20260505081536 | 8 | 308 | 0.0 | 6.4 | 0.00 | 0.00 | 0.00 | 100 | 1016.1 |
| 20260505080036 | 7 | 273 | 0.0 | 3.2 | 0.00 | 0.00 | 0.00 | 100 | 1016.1 |
| 20260505074523 | 7 | 248 | 0.0 | 4.8 | 0.00 | 0.00 | 0.00 | 100 | 1016.2 |
| 20260505073030 | 6 | 262 | 0.0 | 6.4 | 0.00 | 0.00 | 0.00 | 100 | 1016.1 |
| 20260505071520 | 6 | 300 | 0.0 | 4.8 | 0.00 | 0.00 | 0.00 | 100 | 1016.1 |
| 20260505070021 | 6 | 346 | 0.0 | 4.8 | 0.00 | 0.00 | 0.00 | 100 | 1016.2 |
| 20260505064533 | 5 | 169 | 0.0 | 3.2 | 0.00 | 0.00 | 0.00 | 100 | 1016.3 |
| 20260505063017 | 3 | 156 | 0.0 | 1.6 | 0.00 | 0.00 | 0.00 | 100 | 1016.3 |
| 20260505061529 | 2 | 199 | 0.0 | 0.0 | 0.00 | 0.00 | 0.00 | 100 | 1016.3 |
| 20260505060016 | 2 | 124 | 0.0 | 1.6 | 0.00 | 0.00 | 0.00 | 100 | 1016.2 |
| 20260505054515 | 2 | 125 | 0.0 | 0.0 | 0.00 | 0.00 | 0.00 | 100 | 1016.1 |
| 20260505053015 | 2 | 65 | 0.0 | 0.0 | 0.00 | 0.00 | 0.00 | 100 | 1016.1 |